Content
SEND FEEDBACK

Daily
Averages
Monthly
Summary
Canada

MONTREAL, QUEBEC


Home > North America > Canada > Quebec
Elevation: 118 feet     Latitude: 45 28N     Longitude: 073 45W

WEATHER
 
SELECT A DAY
Number of Records: 198,461;   Date Range: 1/1/95 - 8/20/14
 
SHARE

PRINT THIS DATA

[ ← Previous Day ]
WEATHER ALMANAC - APRIL 24, 2013
[ Next Day → ]
[ °C ]   °F
Weather ElementAverageHighLow
Temperature56.7 °F69.8 °F (3:00 pm)42.8 °F (3:00 am)
Dewpoint41.2 °F53.6 °F (10:57 pm)35.6 °F (2:00 am)
Humidity57.8 %88 % (11:00 pm)28 % (3:00 pm)
Barometer29.79 in30.07 in (1:00 am)29.57 in (8:00 pm)
Wind Speed11.1 mph28.8 mph (10:57 pm)
Wind Gust38 mph (10:57 pm)
Weather ElementAverage
Visibility21.4 mi
Wind DirectionSSE (160 °)

Weather ElementTotal
Precipitation---
Heating Degree Days8.7 (Base 65)
Growing Degree Days6.3 (Base 50)
Averaged from 31 records on April 24, 2013
WEATHER CONDITIONS BREAKOUT
WIND DIRECTION BREAKOUT
WEATHER BY HOUR - APRIL 24, 2013
[ °C ]   °F
Local TimeTemperatureDewpointHumidityBarometerVisibilityWind DirectionWind SpeedGust SpeedPrecipitationEventsConditions
1:00 AM44.6 °F37.4 °F76 %30.07 in15.0 miSSE (150°)13.8 mphPartly Cloudy
2:00 AM44.0 °F36.0 °F66 %30.05 in15.0 miSE (140°)6.9 mph
2:00 AM44.6 °F35.6 °F71 %30.05 in15.0 miSE (140°)5.8 mphClear
3:00 AM42.8 °F37.4 °F81 %30.03 in15.0 miSE (140°)8.1 mphClear
4:00 AM44.6 °F37.4 °F76 %30.03 in15.0 miSE (140°)9.2 mphPartly Cloudy
5:00 AM42.8 °F37.4 °F81 %30.01 in15.0 miSE (130°)8.1 mphPartly Cloudy
6:00 AM42.8 °F37.4 °F81 %29.99 in30.0 miESE (120°)8.1 mphPartly Cloudy
7:00 AM44.6 °F37.4 °F76 %29.99 in30.0 miSE (130°)11.5 mphPartly Cloudy
8:00 AM46.0 °F39.0 °F68 %29.98 in28.0 miSE (130°)11.5 mph
8:00 AM46.4 °F39.2 °F76 %29.98 in30.0 miESE (120°)12.7 mphMostly Cloudy
9:00 AM50.0 °F39.2 °F66 %29.94 in30.0 miESE (110°)16.1 mphScattered Clouds
10:00 AM53.6 °F41.0 °F62 %29.90 in30.0 miESE (120°)11.5 mphScattered Clouds
11:00 AM57.2 °F41.0 °F55 %29.87 in30.0 miESE (120°)9.2 mph17.3 mphMostly Cloudy
12:00 PM59.0 °F41.0 °F51 %29.85 in30.0 miESE (120°)11.5 mphOvercast
1:00 PM62.6 °F41.0 °F45 %29.78 in30.0 miESE (110°)11.5 mphMostly Cloudy
1:25 PM64.4 °F39.2 °F40 %29.76 in30.0 miSE (130°)11.5 mphMostly Cloudy
2:00 PM65.0 °F40.0 °F29 %29.74 in28.0 miESE (110°)9.2 mphScattered Clouds
2:00 PM64.4 °F41.0 °F42 %29.73 in30.0 miESE (110°)8.1 mphMostly Cloudy
3:00 PM69.8 °F35.6 °F28 %29.69 in30.0 miESE (120°)11.5 mph17.3 mphScattered Clouds
4:00 PM69.8 °F35.6 °F28 %29.65 in30.0 miSE (140°)12.7 mph19.6 mphMostly Cloudy
5:00 PM69.8 °F39.2 °F33 %29.61 in30.0 miSE (130°)15.0 mphOvercast
6:00 PM68.0 °F42.8 °F40 %29.60 in15.0 miSSE (160°)12.7 mphOvercast
6:49 PM66.2 °F44.6 °F46 %29.59 in15.0 miSouth (170°)17.3 mphRainLight Rain Showers
7:00 PM66.2 °F44.6 °F46 %29.59 in15.0 miSouth (190°)12.7 mph19.6 mphRainLight Rain Showers
7:29 PM64.4 °F46.4 °F52 %29.59 in15.0 miWest (260°)6.9 mphOvercast
8:00 PM63.0 °F45.0 °F41 %29.57 in15.0 miNW (310°)5.8 mphRainLight Rain Showers
8:00 PM62.6 °F44.6 °F52 %29.57 in15.0 miWNW (300°)3.5 mphOvercast
8:20 PM62.6 °F44.6 °F52 %29.57 in15.0 miWest (260°)2.3 mphRainLight Rain Showers
9:00 PM60.8 °F48.2 °F63 %29.57 in15.0 miSouth (170°)3.5 mphRainLight Rain Showers
10:57 PM59.0 °F53.6 °F82 %29.58 in2.0 miWSW (240°)28.8 mph38.0 mphRainRain Showers
11:00 PM57.2 °F53.6 °F88 %29.59 in4.0 miWSW (240°)27.6 mph38.0 mphRainRain Showers
Hourly data recorded from CYUL, located miles away from Montreal, Quebec







STORIES FROM OUR PARTNERS